Погода в Приуральском

Россия / Республика Коми     62°37′30″N   57°27′52″E
темп.,
°C
ветер,
м/с
пор.,
м/с
влажн.,
%
обл.,
%
осадки,
мм/ч
давл.,
гПа
погр.,
м
15 мая, сб
сб1500:00+15ю128489 1.0 101426
03:00+14юв1189100 1.0 101319
06:00+17ю3475100 0.1 1013348
09:00+22зюз355399 0.1 10121052
12:00+24з582878 0.0 10122700
15:00+24з5729100 0.0 10122814
18:00+21з483563 0.0 1012706
21:00+18зсз274789 0.0 1013264
16 мая, вс
вс1600:00+13всв12827 0.0 101354
03:00+12ссв1184100 0.0 101418
06:00+16юв126678 0.0 1014349
09:00+17юв136383 0.0 1013144
12:00+22ю154690 0.0 10111738
15:00+21вюв335889 0.1 1008344
18:00+18ююв46815 3.0 1009257
21:00+15ююв379190 4.9 1008261
17 мая, пн
пн1700:00+14ююв3894100 5.9 1008230
03:00+13ю269394 6.4 1008163
06:00+16зюз377996 3.5 1008511
09:00+19з5865100 6.9 10081185
12:00+21зсз485495 4.2 10091644
15:00+16ссз378087 8.9 1010222
18:00+17зсз51173100 4.9 1010925
21:00+14зсз397992 5.0 1012363
18 мая, вт
вт1800:00+12з2883100 0.0 1012351
03:00+12зсз259198 0.2 1013417
06:00+11ссз3690100 0.1 1015366
09:00+11св3484100 0.1 1018535
12:00+12в2272100 0.0 1020582
15:00+14всв236699 0.0 1021740
18:00+14вюв12640 0.0 1021645
21:00+10ююв23854 0.0 102365
19 мая, ср
ср1900:00+8юв22885 0.0 102444
03:00+8юв2288100 0.0 102455
06:00+11юв3470100 0.0 1024281
09:00+16ююв2351100 0.0 1023750
12:00+19ю334154 0.0 10221216
15:00+21ююз343722 0.0 10201588
18:00+20ю264741 0.0 1019252
21:00+15ююв39681 0.0 1018171